Wind_Speed
6 7 7 7 7 5 4 5 6 8 9 8 8 8 8 7 6 6 5 3 2 2 3 3 3 2 1 1 2 3 4 5 4 4 3 4 4 5 5 6 6 7 7 7 7 7 7 6 6
4 4 4 5 7 4 2 2 4 7 8 7 6 6 7 7 7 6 5 4 2 1 0 2 1 0 2 3 4 4 5 6 6 5 5 5 5 5 5 5 6 6 7 8 8 6 5 4 4
3 2 1 2 4 1 1 1 1 3 4 5 4 4 4 4 5 4 3 3 3 3 3 2 2 3 4 5 6 6 6 6 6 6 6 6 6 6 6 6 7 8 8 9 10 10 7 5 3
4 2 1 1 1 2 2 2 3 2 1 1 1 1 1 1 1 2 2 2 2 2 3 3 4 5 6 6 7 7 7 7 6 6 7 7 8 8 7 8 9 10 11 12 12 12 11 8 6
7 5 3 3 5 4 4 4 4 4 4 3 2 1 1 0 1 2 2 2 3 3 3 3 4 5 5 6 7 7 8 8 7 7 7 8 9 9 9 10 11 12 13 13 13 12 12 10 9
11 9 6 7 8 6 4 4 4 5 5 4 3 2 1 1 1 1 1 2 2 2 3 3 3 4 5 6 7 8 9 9 9 9 9 10 10 12 13 13 14 15 15 15 14 13 12 12 10
15 13 12 12 11 9 6 6 8 7 7 5 4 3 3 3 1 1 0 2 3 5 6 6 7 7 7 8 8 9 10 11 11 11 11 12 13 14 16 17 17 17 17 17 16 15 14 14 13
19 16 15 15 14 13 10 9 9 7 7 6 5 5 4 3 4 3 4 6 8 10 12 13 14 14 14 14 13 14 14 14 15 15 15 16 17 18 19 20 20 20 20 21 20 19 18 17 17
21 19 19 20 19 17 13 11 8 6 7 7 7 6 7 8 9 9 11 13 15 16 18 19 20 20 21 21 21 21 20 20 20 21 21 21 21 22 23 23 23 24 24 24 24 24 23 22 21
24 23 25 23 21 19 16 12 10 9 9 10 10 9 10 12 14 15 17 19 20 22 23 24 24 25 25 26 27 27 27 27 27 27 27 27 26 26 26 26 27 28 28 29 29 29 28 27 26
26 28 27 25 24 21 19 15 13 12 11 12 13 14 15 17 19 21 22 24 25 26 27 28 28 29 30 31 32 32 32 33 33 32 32 32 31 31 31 31 31 31 33 34 34 34 34 33 32
26 29 30 29 26 24 22 19 17 15 15 15 16 18 20 22 24 26 27 28 29 30 31 31 32 32 33 34 35 36 36 37 37 37 37 37 36 36 35 35 35 35 37 38 40 40 39 38 38
26 28 29 29 29 28 25 23 21 20 19 18 20 22 24 26 28 30 32 33 33 34 35 35 34 33 33 34 35 36 36 37 37 38 39 39 39 38 38 37 37 38 39 40 42 42 42 42 42
29 27 27 28 29 28 28 27 25 24 24 23 24 26 28 30 32 34 35 36 36 37 37 36 34 34 33 33 33 34 34 34 34 35 36 37 37 37 37 36 36 36 37 36 37 38 39 40 41
31 29 27 28 28 29 28 29 30 29 29 29 29 31 32 34 36 37 38 38 38 38 37 35 34 34 34 33 33 33 33 32 32 33 33 33 33 33 33 33 33 34 35 35 36 36 35 34 35
33 31 30 32 30 29 29 29 34 31 32 32 33 34 36 38 39 40 40 40 39 38 37 36 35 35 34 33 33 33 32 30 29 28 27 27 27 29 30 31 32 34 35 37 38 38 37 36 36
32 33 33 36 34 32 32 34 37 34 35 36 36 37 38 39 40 41 41 39 38 37 36 36 37 36 34 33 31 29 29 29 27 25 24 23 24 25 27 29 31 33 35 36 37 38 39 39 39
29 32 35 37 38 36 37 39 40 39 39 39 39 39 38 38 39 40 39 37 37 36 36 37 37 36 34 31 29 26 25 25 24 23 22 21 22 23 24 27 29 32 35 36 38 38 39 39 39
26 29 31 37 38 38 40 41 42 42 42 41 39 37 35 35 36 37 37 36 38 38 38 37 36 34 31 29 27 24 22 21 20 19 17 17 17 18 20 23 26 30 33 36 38 39 40 39 39
20 22 24 30 34 36 37 38 38 38 36 34 33 32 33 33 34 34 36 37 39 39 39 37 35 31 29 27 25 22 19 17 15 13 13 14 14 16 18 20 23 25 29 32 36 39 41 41 41
11 14 17 21 24 25 28 27 28 30 29 27 27 28 29 31 33 35 38 40 41 41 40 37 34 31 29 27 23 20 16 14 13 13 14 15 16 17 19 20 22 24 26 28 31 35 38 40 41
10 13 14 16 17 17 21 20 21 25 25 26 27 28 30 32 36 38 40 41 41 39 38 36 33 31 30 27 23 20 18 16 16 17 18 19 20 20 21 22 24 25 27 27 29 31 34 37 39
12 13 13 14 15 15 17 17 15 22 22 25 27 29 32 34 37 39 39 39 38 37 36 35 34 33 30 27 25 23 21 21 21 22 23 23 23 23 23 24 25 26 27 28 29 29 31 34 36
11 11 11 12 12 12 15 14 13 18 19 20 22 24 26 29 32 34 34 34 34 35 35 36 35 34 31 29 28 26 26 27 27 28 28 27 26 25 25 25 25 26 27 29 30 30 30 31 33
11 11 11 10 10 12 17 14 15 19 19 19 20 22 23 25 27 30 31 32 33 34 36 37 36 35 33 32 31 30 30 31 32 31 30 29 27 26 25 26 26 26 27 29 30 31 30 30 30
10 10 10 11 11 12 15 14 17 20 20 20 21 23 25 26 28 30 33 34 34 35 37 37 37 36 35 34 34 34 34 35 34 33 31 30 28 27 26 26 26 27 27 28 30 30 30 29 29
9 9 11 13 13 13 12 14 19 22 22 22 23 24 27 28 30 32 34 36 37 38 39 39 39 39 39 38 38 38 37 36 35 34 33 32 30 29 27 27 27 27 27 28 29 31 30 29 28
10 11 13 14 15 14 15 17 19 20 22 24 26 28 30 33 34 36 38 39 40 41 42 43 44 45 45 44 43 42 41 39 39 38 37 35 33 32 29 28 28 27 27 28 29 31 30 29 28
14 15 15 17 19 19 19 22 23 24 26 28 30 32 34 37 39 41 43 44 44 45 46 47 49 49 50 50 49 48 46 45 43 42 41 39 37 34 31 29 28 27 27 28 29 30 30 29 28
17 19 20 21 22 24 25 30 26 28 30 32 33 35 38 40 42 44 46 48 48 49 50 51 52 53 54 55 55 54 52 50 49 47 46 43 40 37 34 31 29 28 27 28 29 30 31 30 29
Wind_Direction
96 87 81 77 69 72 101 117 122 119 113 106 99 93 90 86 84 89 94 92 126 158 143 118 107 106 143 240 307 330 338 341 345 350 357 5 20 36 43 45 45 43 38 35 39 46 52 54 53
124 99 83 68 61 56 83 132 144 135 126 118 109 98 90 85 85 81 74 59 37 359 64 99 101 256 263 266 278 293 305 312 316 319 320 325 334 350 6 13 17 19 15 9 5 8 18 29 34
170 142 78 50 53 40 357 317 172 152 140 136 121 105 91 84 80 75 64 43 16 354 350 356 332 303 290 281 279 285 290 294 299 305 308 310 315 323 336 349 356 356 354 352 349 344 339 336 336
226 226 256 324 306 292 293 301 290 278 269 228 188 111 85 85 67 51 34 10 344 337 345 342 326 310 299 288 283 286 289 290 290 293 298 302 307 313 322 332 338 340 340 340 341 340 334 324 314
238 241 245 239 243 255 274 291 292 283 275 272 264 272 316 46 345 341 329 312 307 313 333 339 331 322 313 300 289 288 289 289 290 292 296 300 302 306 311 318 324 329 330 330 331 332 329 322 311
243 244 239 228 234 236 255 284 296 288 263 253 249 231 221 174 111 70 360 323 320 324 332 325 314 306 302 298 292 287 284 282 284 288 292 296 298 300 304 308 314 319 322 322 322 321 319 315 305
242 239 235 233 234 235 251 289 302 292 266 249 233 207 197 170 189 169 334 334 337 332 324 315 305 297 291 285 282 281 278 275 275 279 284 289 292 294 297 300 305 309 312 313 313 311 309 306 301
242 240 239 237 238 239 250 279 296 286 272 255 224 213 222 241 262 281 298 308 315 317 314 310 305 298 292 286 281 277 275 272 272 274 278 283 287 290 292 294 297 300 302 304 303 302 301 300 296
242 240 239 238 238 243 249 265 273 277 272 257 238 238 255 278 285 293 299 305 309 309 309 307 305 301 295 289 284 280 277 275 273 274 276 279 282 284 286 288 290 292 293 293 293 292 290 290 289
240 238 240 243 243 248 251 252 254 266 266 257 257 262 274 282 289 295 300 304 306 307 307 307 305 301 296 291 286 281 278 276 274 274 275 276 276 277 278 280 281 283 284 283 283 283 282 281 280
238 238 245 248 249 251 253 250 249 258 261 259 266 275 281 285 291 296 300 302 304 305 306 306 304 300 297 293 289 285 281 278 276 275 275 275 274 274 273 273 274 276 277 277 277 276 276 275 274
238 241 244 248 251 254 255 254 251 255 256 265 275 282 285 288 292 296 298 300 302 304 305 304 303 300 296 293 288 285 282 280 278 277 276 275 274 274 274 274 275 275 275 275 275 274 272 271 270
234 239 244 248 251 254 258 259 257 258 262 271 278 281 283 287 290 293 295 297 300 301 303 303 301 299 296 292 288 286 284 283 281 279 277 276 276 276 276 276 276 276 276 276 275 275 272 270 268
235 238 243 246 249 253 256 259 261 262 266 271 274 277 280 284 287 289 291 294 296 298 299 300 299 298 295 292 289 288 286 284 282 280 278 277 276 277 278 278 279 279 279 281 282 282 278 274 273
235 236 241 245 247 251 255 257 260 260 265 268 270 273 277 281 283 285 287 289 292 295 297 297 297 297 295 293 291 288 285 284 281 279 278 278 279 280 281 281 282 283 283 284 286 287 286 286 281
236 236 239 244 246 249 252 253 258 259 260 263 266 270 273 276 278 280 283 286 289 292 293 294 296 298 297 295 290 287 283 282 282 281 280 280 281 283 284 285 285 284 285 284 283 283 283 282 282
239 236 237 244 246 248 250 251 257 261 260 262 264 267 270 271 273 275 279 282 286 288 290 293 297 299 296 293 289 287 284 282 281 282 284 285 286 288 289 289 289 288 286 284 282 280 279 279 278
239 238 241 244 247 249 251 254 258 260 261 263 265 267 267 266 267 271 275 279 281 284 288 294 297 297 294 291 290 289 287 283 281 282 284 287 290 292 293 293 292 290 288 286 284 281 279 278 277
246 244 245 248 251 252 254 257 260 262 264 266 267 267 265 263 264 268 271 275 279 284 290 294 295 293 290 290 291 289 286 283 280 280 283 287 293 298 300 300 297 292 289 285 282 280 278 277 277
253 252 252 255 255 258 261 265 268 270 270 270 268 265 263 264 266 268 271 276 280 287 291 292 293 291 290 290 290 287 283 279 275 274 279 287 295 302 306 307 307 303 297 291 284 279 276 274 273
267 261 260 263 267 270 271 274 278 276 276 274 269 264 262 264 266 270 273 278 282 287 288 289 290 291 291 290 290 286 281 277 275 279 286 291 297 303 309 313 316 316 311 302 294 286 280 274 271
285 274 273 276 277 276 278 278 278 282 278 274 269 265 262 263 266 269 273 277 281 283 284 286 288 289 289 289 287 284 279 277 279 283 287 293 300 305 310 315 318 321 321 315 304 295 287 279 273
278 282 283 284 284 283 284 287 282 282 278 272 267 263 261 262 265 268 271 274 277 279 281 283 286 288 288 286 285 282 276 274 276 280 285 291 297 302 307 312 317 321 323 323 317 306 295 286 277
290 292 295 297 298 297 288 292 289 283 283 279 274 269 266 265 266 265 265 268 271 275 279 282 285 286 286 285 284 280 275 273 274 277 281 286 291 298 304 309 313 318 322 325 324 317 306 295 285
301 301 305 306 300 292 297 298 287 287 286 284 281 277 273 270 270 267 269 271 273 277 280 282 283 283 283 282 281 279 276 275 275 278 280 283 287 294 300 305 309 314 320 325 326 324 316 304 293
300 299 296 289 284 286 298 295 287 289 289 288 286 283 281 277 275 275 277 278 279 280 280 281 281 280 280 279 279 278 277 277 278 279 280 282 286 290 295 300 304 309 316 322 326 325 321 312 301
302 297 296 297 300 301 293 287 285 287 289 289 286 283 281 280 278 277 277 278 279 279 279 278 279 279 278 277 277 276 277 277 278 279 279 282 284 288 291 295 298 303 310 317 323 325 324 317 308
305 303 302 300 298 295 291 292 283 289 286 284 282 280 280 280 279 279 278 278 278 277 277 277 278 278 277 276 274 274 274 275 277 278 279 280 282 285 287 290 292 297 304 310 317 322 323 320 313
316 314 310 305 303 301 296 286 297 293 288 284 281 278 277 276 277 277 277 276 276 275 275 275 275 275 275 275 274 274 273 274 274 276 277 278 279 281 283 285 288 292 298 306 312 317 320 319 315
316 315 314 311 309 308 306 299 304 297 293 290 287 283 280 277 276 275 275 275 275 274 273 273 273 274 274 275 275 275 275 274 274 274 275 275 276 277 278 281 284 287 294 301 307 312 315 317 315
Height
5932 5933 5933 5935 5936 5937 5937 5937 5936 5935 5934 5934 5933 5933 5933 5934 5935 5937 5935 5933 5933 5932 5931 5930 5930 5930 5929 5929 5928 5927 5925 5924 5922 5921 5919 5918 5917 5916 5915 5914 5913 5913 5912 5911 5909 5908 5906 5905 5904
5933 5934 5935 5936 5937 5938 5938 5937 5937 5936 5935 5934 5934 5933 5933 5934 5934 5934 5934 5933 5933 5933 5932 5931 5931 5931 5930 5929 5928 5926 5925 5924 5922 5921 5919 5918 5917 5916 5915 5914 5914 5913 5912 5911 5910 5908 5907 5905 5904
5933 5934 5936 5936 5937 5938 5937 5937 5936 5935 5935 5934 5934 5933 5934 5933 5933 5933 5933 5933 5933 5933 5932 5932 5931 5931 5930 5929 5928 5926 5925 5923 5922 5921 5919 5918 5917 5916 5915 5914 5914 5913 5912 5911 5909 5908 5906 5905 5904
5933 5934 5936 5937 5937 5937 5936 5936 5935 5935 5934 5933 5933 5933 5932 5932 5932 5933 5932 5932 5932 5931 5931 5931 5930 5930 5929 5928 5927 5926 5924 5923 5921 5920 5919 5917 5916 5915 5914 5913 5913 5912 5911 5910 5909 5907 5906 5904 5903
5933 5934 5936 5937 5936 5936 5936 5935 5935 5934 5933 5933 5932 5931 5931 5931 5931 5931 5931 5931 5930 5930 5929 5929 5929 5929 5928 5927 5926 5925 5923 5922 5920 5919 5918 5916 5915 5914 5913 5912 5911 5910 5909 5908 5907 5906 5905 5903 5902
5932 5935 5937 5938 5936 5936 5936 5935 5935 5934 5933 5932 5931 5931 5930 5930 5930 5930 5930 5930 5929 5929 5928 5927 5927 5926 5926 5925 5924 5923 5922 5920 5919 5918 5916 5915 5914 5913 5911 5910 5909 5908 5907 5906 5905 5904 5903 5902 5901
5931 5933 5935 5936 5936 5936 5936 5936 5935 5934 5933 5932 5931 5931 5930 5929 5929 5929 5929 5929 5929 5928 5927 5926 5925 5925 5924 5923 5922 5921 5920 5918 5917 5916 5914 5913 5912 5911 5909 5908 5906 5905 5904 5903 5902 5901 5901 5900 5899
5927 5931 5932 5934 5935 5935 5936 5936 5935 5934 5933 5931 5930 5930 5929 5928 5928 5928 5928 5927 5927 5926 5925 5925 5924 5923 5922 5921 5920 5918 5917 5916 5914 5913 5912 5911 5909 5908 5906 5905 5903 5902 5901 5900 5899 5898 5898 5897 5897
5925 5930 5930 5931 5932 5933 5934 5935 5934 5933 5932 5931 5929 5929 5928 5927 5926 5926 5926 5925 5924 5924 5923 5922 5921 5920 5919 5918 5916 5915 5913 5912 5910 5909 5908 5906 5905 5904 5902 5901 5900 5898 5897 5896 5895 5894 5894 5894 5893
5923 5926 5926 5927 5929 5930 5932 5933 5933 5932 5931 5930 5928 5927 5926 5925 5924 5923 5923 5922 5921 5920 5919 5918 5917 5916 5914 5913 5911 5910 5908 5907 5905 5903 5902 5901 5900 5899 5897 5896 5895 5894 5892 5891 5890 5889 5888 5888 5888
5919 5920 5921 5923 5925 5927 5928 5930 5931 5930 5930 5928 5927 5925 5924 5923 5922 5921 5920 5919 5918 5916 5915 5914 5912 5911 5909 5907 5905 5904 5902 5901 5899 5897 5896 5895 5894 5892 5891 5890 5889 5888 5887 5885 5884 5883 5882 5882 5881
5915 5915 5916 5918 5920 5922 5924 5926 5928 5928 5927 5925 5924 5922 5921 5920 5919 5917 5916 5915 5914 5912 5911 5909 5907 5905 5903 5901 5899 5897 5895 5893 5892 5890 5889 5888 5887 5886 5885 5884 5883 5882 5880 5879 5877 5876 5875 5874 5874
5910 5911 5912 5914 5916 5917 5919 5921 5923 5924 5923 5922 5921 5919 5917 5916 5915 5914 5912 5911 5909 5907 5906 5904 5902 5899 5897 5895 5892 5890 5888 5886 5884 5882 5881 5880 5879 5878 5877 5877 5875 5874 5873 5871 5869 5867 5866 5865 5865
5906 5907 5909 5910 5911 5913 5915 5916 5918 5919 5918 5918 5917 5915 5913 5912 5910 5909 5907 5906 5904 5902 5900 5898 5895 5893 5890 5888 5885 5883 5881 5879 5877 5874 5873 5871 5871 5870 5869 5868 5868 5866 5864 5863 5861 5859 5857 5856 5856
5901 5904 5905 5905 5907 5909 5911 5913 5913 5913 5914 5913 5913 5911 5909 5907 5905 5903 5902 5900 5899 5897 5894 5892 5889 5886 5883 5881 5879 5877 5874 5872 5870 5867 5866 5865 5863 5863 5862 5861 5860 5858 5856 5855 5853 5852 5850 5849 5848
5897 5900 5902 5901 5902 5904 5908 5909 5906 5907 5908 5908 5907 5906 5904 5902 5900 5898 5896 5894 5893 5891 5888 5886 5883 5880 5877 5875 5872 5870 5867 5865 5863 5861 5860 5859 5858 5857 5856 5854 5853 5851 5849 5848 5846 5845 5843 5842 5841
5892 5895 5896 5896 5897 5899 5901 5902 5899 5901 5901 5901 5901 5900 5898 5896 5894 5892 5890 5889 5887 5885 5882 5880 5877 5874 5871 5868 5866 5863 5861 5859 5857 5855 5854 5853 5852 5850 5849 5847 5845 5843 5842 5840 5838 5837 5835 5834 5833
5886 5888 5889 5890 5890 5893 5894 5894 5893 5894 5894 5894 5894 5893 5892 5890 5888 5886 5884 5883 5881 5879 5876 5874 5871 5868 5865 5862 5859 5857 5855 5853 5851 5849 5848 5847 5846 5844 5842 5840 5838 5836 5834 5832 5830 5828 5826 5825 5824
5880 5883 5884 5883 5884 5886 5886 5887 5886 5886 5887 5887 5887 5886 5885 5884 5882 5880 5879 5877 5875 5872 5870 5868 5865 5862 5859 5856 5853 5851 5849 5847 5845 5844 5842 5841 5839 5838 5836 5833 5831 5829 5826 5824 5821 5819 5817 5816 5815
5877 5878 5879 5878 5878 5879 5879 5880 5879 5879 5879 5879 5879 5879 5879 5878 5876 5874 5872 5870 5868 5866 5863 5860 5857 5855 5852 5850 5847 5845 5843 5841 5839 5838 5837 5836 5834 5832 5830 5827 5824 5821 5818 5815 5812 5809 5808 5807 5806
5874 5875 5875 5874 5873 5873 5873 5874 5872 5871 5871 5872 5872 5872 5872 5871 5869 5867 5865 5862 5860 5857 5855 5852 5850 5848 5846 5843 5841 5838 5837 5835 5834 5833 5832 5831 5829 5827 5824 5821 5818 5815 5811 5807 5803 5800 5798 5798 5797
5872 5870 5870 5869 5870 5870 5869 5869 5869 5865 5865 5865 5865 5865 5865 5864 5862 5859 5856 5853 5851 5849 5846 5844 5842 5841 5838 5836 5834 5832 5831 5830 5829 5827 5826 5824 5822 5820 5817 5814 5811 5807 5803 5800 5796 5792 5789 5787 5787
5867 5866 5866 5865 5865 5865 5864 5864 5866 5859 5858 5858 5857 5857 5856 5855 5853 5850 5847 5845 5843 5841 5838 5836 5835 5833 5831 5829 5827 5826 5825 5824 5822 5821 5819 5817 5815 5813 5810 5807 5804 5801 5797 5792 5788 5784 5780 5777 5776
5864 5864 5864 5863 5863 5863 5860 5861 5860 5855 5853 5851 5850 5848 5847 5846 5843 5840 5837 5836 5834 5832 5831 5828 5827 5825 5823 5822 5820 5819 5818 5817 5815 5814 5812 5810 5808 5805 5803 5800 5797 5793 5790 5786 5781 5777 5772 5769 5766
5863 5863 5863 5864 5864 5862 5857 5856 5854 5849 5847 5845 5844 5842 5840 5838 5836 5832 5829 5828 5826 5825 5823 5821 5819 5817 5816 5814 5813 5812 5810 5809 5807 5806 5804 5802 5800 5798 5795 5792 5789 5786 5783 5779 5774 5769 5765 5761 5758
5861 5860 5861 5860 5860 5858 5854 5852 5849 5843 5841 5840 5838 5836 5834 5833 5831 5828 5825 5822 5819 5817 5815 5813 5811 5809 5807 5806 5805 5803 5802 5800 5798 5797 5795 5793 5791 5789 5787 5784 5782 5779 5775 5772 5768 5763 5758 5754 5750
5858 5857 5856 5855 5853 5852 5851 5848 5842 5838 5837 5835 5832 5830 5828 5825 5823 5821 5818 5815 5812 5809 5807 5804 5802 5800 5798 5797 5796 5794 5792 5790 5788 5787 5785 5783 5781 5779 5778 5776 5773 5771 5767 5764 5761 5757 5752 5747 5743
5856 5854 5853 5851 5849 5849 5848 5844 5841 5835 5832 5829 5826 5823 5820 5818 5815 5812 5808 5805 5802 5799 5796 5793 5791 5789 5787 5786 5785 5784 5782 5780 5779 5777 5775 5773 5771 5769 5768 5766 5764 5762 5759 5756 5753 5750 5746 5741 5737
5853 5851 5849 5847 5844 5842 5841 5840 5834 5830 5826 5822 5819 5815 5812 5808 5804 5801 5797 5793 5790 5787 5784 5782 5779 5776 5774 5773 5772 5771 5770 5768 5767 5765 5764 5762 5760 5759 5757 5756 5754 5752 5750 5748 5745 5742 5739 5735 5731
5849 5846 5844 5842 5838 5835 5832 5831 5827 5821 5817 5813 5809 5805 5801 5797 5793 5788 5784 5780 5777 5773 5770 5767 5765 5762 5759 5757 5756 5754 5754 5753 5752 5752 5751 5749 5748 5747 5746 5745 5744 5742 5741 5739 5737 5735 5732 5729 5725